Weather reports worldwide

Advertisment
Calvi, France (7754): temperature & dewpoint: 09.12.2018 07:00:00 - 15.12.2018 07:00:00 (CET)Calvi, France (7754): temperature 5cm: 09.12.2018 07:00:00 - 15.12.2018 07:00:00 (CET)Calvi, France (7754): wind speed & gusts: 09.12.2018 07:00:00 - 15.12.2018 07:00:00 (CET)Calvi, France (7754): wind direction: 09.12.2018 07:00:00 - 15.12.2018 07:00:00 (CET)Calvi, France (7754): reduced air pressure: 09.12.2018 07:00:00 - 15.12.2018 07:00:00 (CET)Calvi, France (7754): visibility: 09.12.2018 07:00:00 - 15.12.2018 07:00:00 (CET)Calvi, France (7754): precipitation: 09.12.2018 07:00:00 - 15.12.2018 07:00:00 (CET)
Date & Time tt [°C] td [°C] tt 5cm [°C] ff [km/h] ff [kn] fx [km/h] fx [kn] dd ppp [hPa] vv [km] rr [mm]
15.12.2018 07:00:00 - - - - - - - - - - -
15.12.2018 06:00:00 2,9 0,1 1,6 11 6 18 10 S 1016,5 55 0,0
15.12.2018 05:00:00 3,6 0,8 2,4 8 4 17 9 S 1016,2 60 0,0
15.12.2018 04:00:00 2,8 1,0 1,2 10 6 17 9 SSW 1016,0 52 0,0
15.12.2018 03:00:00 3,6 1,0 1,8 12 6 18 10 SSW 1015,6 60 0,0
15.12.2018 02:00:00 2,8 0,5 2,0 11 6 19 10 S 1015,3 60 0,0
15.12.2018 01:00:00 3,8 1,0 2,1 13 7 18 10 SSW 1014,9 59 0,0
15.12.2018 00:00:00 3,3 1,3 2,0 11 6 18 10 SSW 1015,2 60 0,0
14.12.2018 23:00:00 2,8 1,2 2,3 16 8 17 9 SSE 1014,9 41 0,0
14.12.2018 22:00:00 4,5 2,4 2,1 14 8 18 10 SSW 1014,7 60 0,0
14.12.2018 21:00:00 3,1 1,1 2,5 9 5 16 8 SSW 1014,7 48 0,0
14.12.2018 20:00:00 4,4 2,1 3,4 8 5 14 8 S 1014,3 43 0,0
14.12.2018 19:00:00 4,3 2,2 3,2 12 7 16 9 SSW 1013,8 57 0,0
14.12.2018 18:00:00 6,1 2,2 4,3 2 1 18 10 SW 1012,9 60 0,0
14.12.2018 17:00:00 8,6 2,8 7,5 7 4 27 14 NNE 1012,5 60 0,0
14.12.2018 16:00:00 9,8 3,1 10,1 17 9 30 16 NE 1011,9 55 0,0
14.12.2018 15:00:00 10,3 5,1 9,9 10 5 26 14 NE 1011,4 54 0,0
14.12.2018 14:00:00 9,9 4,7 9,6 15 8 32 18 NE 1011,2 60 0,0
14.12.2018 13:00:00 9,7 4,9 9,4 15 8 36 19 NNE 1011,5 60 0,0
14.12.2018 12:00:00 9,9 6,1 9,3 15 8 28 15 NNE 1011,1 60 0,0
14.12.2018 11:00:00 9,9 5,9 9,4 14 8 38 20 NNE 1010,7 60 0,0
14.12.2018 10:00:00 10,4 7,3 8,0 4 2 15 8 S 1010,2 19 0,0
14.12.2018 09:00:00 7,9 6,5 7,2 3 2 8 5 E 1009,7 60 0,0
14.12.2018 08:00:00 7,8 6,6 7,2 4 2 21 12 S 1008,7 60 0,0
14.12.2018 07:00:00 7,6 6,4 7,0 8 5 19 10 NNW 1008,1 60 0,0
14.12.2018 06:00:00 7,5 6,4 7,1 0 0 14 7 N 1008,0 48 0,6
14.12.2018 05:00:00 7,9 7,1 7,5 4 2 8 4 SSW 1008,0 12 0,6
14.12.2018 04:00:00 7,8 7,0 7,5 6 4 8 5 SSE 1008,0 36 0,2
14.12.2018 03:00:00 7,9 7,1 7,5 3 2 9 5 SW 1008,1 26 0,0
14.12.2018 02:00:00 7,9 7,1 7,6 5 3 12 6 SSE 1007,8 44 0,0
14.12.2018 01:00:00 8,1 7,3 7,7 7 4 11 6 S 1007,7 42 0,6
14.12.2018 00:00:00 8,1 7,3 7,7 4 2 7 4 SSW 1007,9 30 0,0
13.12.2018 23:00:00 8,1 7,3 7,8 0 0 9 5 N 1007,7 26 0,0
13.12.2018 22:00:00 8,3 7,5 7,9 5 3 10 5 SSE 1007,5 17 0,6
13.12.2018 21:00:00 8,4 7,6 8,0 4 2 8 4 S 1007,7 15 0,4
13.12.2018 20:00:00 8,6 7,7 8,2 5 3 9 5 SSE 1007,7 19 0,4
13.12.2018 19:00:00 8,7 7,6 8,3 4 2 9 5 S 1007,7 20 0,2
13.12.2018 18:00:00 8,9 7,7 8,3 6 3 9 5 SSE 1008,0 42 0,2
13.12.2018 17:00:00 9,2 7,5 8,4 3 1 20 11 WSW 1008,3 44 0,2
13.12.2018 16:00:00 9,3 7,6 8,7 5 3 19 11 NNW 1008,9 15 0,8
13.12.2018 15:00:00 9,8 7,4 9,1 13 7 22 12 N 1009,0 18 0,4
13.12.2018 14:00:00 10,3 8,4 9,9 5 3 10 5 NNW 1009,4 14 0,4
13.12.2018 13:00:00 10,8 8,4 10,9 2 1 6 4 N 1009,7 41 0,0
13.12.2018 12:00:00 10,8 8,9 10,9 3 2 9 5 SW 1010,2 60 0,0
13.12.2018 11:00:00 10,0 8,8 9,4 4 2 6 3 W 1011,0 60 0,0
13.12.2018 10:00:00 9,0 7,9 8,0 4 2 14 8 S 1011,3 49 0,4
13.12.2018 09:00:00 8,4 7,3 7,9 8 5 12 7 SSW 1011,7 19 1,0
13.12.2018 08:00:00 8,4 7,3 7,8 6 4 9 5 SSW 1011,8 14 1,6
13.12.2018 07:00:00 8,5 7,3 7,9 6 3 13 7 SSE 1011,5 20 2,1
13.12.2018 06:00:00 8,9 7,7 8,1 8 5 15 8 SSE 1011,7 4,3 4,2
13.12.2018 05:00:00 8,9 7,2 8,1 3 2 5 3 S 1011,4 12 0,4
13.12.2018 04:00:00 9,4 7,2 8,3 3 1 12 6 S 1012,3 15 0,4
13.12.2018 03:00:00 9,7 6,6 8,8 8 5 14 7 SSE 1012,8 60 0,0
13.12.2018 02:00:00 10,0 7,1 8,9 9 5 29 16 SSE 1013,3 17 0,2
13.12.2018 01:00:00 10,1 6,4 8,5 8 4 20 11 SSE 1013,5 48 0,0
13.12.2018 00:00:00 8,7 5,6 7,6 9 5 13 7 SSE 1014,2 60 0,0
12.12.2018 23:00:00 9,0 5,2 8,0 6 4 10 6 SSW 1014,4 60 0,0
12.12.2018 22:00:00 9,1 5,5 8,0 9 5 12 7 SSW 1014,4 60 0,0
12.12.2018 21:00:00 8,1 5,4 7,2 8 4 13 7 S 1014,7 60 0,0
12.12.2018 20:00:00 7,8 5,1 6,7 6 3 11 6 S 1015,1 60 0,0
12.12.2018 19:00:00 9,1 5,8 7,8 7 4 15 8 SSW 1015,3 59 0,0
12.12.2018 18:00:00 9,0 6,4 8,1 8 4 12 6 S 1015,2 40 0,0
12.12.2018 17:00:00 11,0 7,5 9,7 4 2 8 4 S 1015,2 28 0,0
12.12.2018 16:00:00 13,0 7,2 13,1 0 0 5 3 N 1015,8 17 0,0
12.12.2018 15:00:00 13,3 7,5 13,9 3 2 8 4 NNW 1015,5 60 0,0
12.12.2018 14:00:00 13,7 7,0 14,8 7 4 11 6 NNW 1015,9 60 0,0
12.12.2018 13:00:00 14,0 6,4 15,4 8 5 14 7 N 1016,4 59 0,0
12.12.2018 12:00:00 14,2 6,5 16,1 2 1 5 3 N 1017,4 59 0,0
12.12.2018 11:00:00 13,9 4,7 14,2 2 1 9 5 S 1017,7 19 0,0
12.12.2018 10:00:00 11,0 5,1 8,6 7 4 13 7 SSW 1017,7 19 0,0
12.12.2018 09:00:00 6,0 3,5 3,4 5 3 16 8 SSE 1017,9 42 0,0
12.12.2018 08:00:00 5,7 2,3 2,7 7 4 16 9 SSW 1017,6 60 0,0
12.12.2018 07:00:00 6,1 2,7 3,1 12 7 17 9 SSW 1017,4 60 0,0
12.12.2018 06:00:00 4,5 1,9 2,9 10 5 14 8 SSW 1017,1 60 0,0
12.12.2018 05:00:00 5,9 2,7 4,7 11 6 16 9 SSW 1017,4 60 0,0
12.12.2018 04:00:00 6,0 3,5 2,9 10 6 16 9 SSW 1017,9 60 0,0
12.12.2018 03:00:00 4,5 2,4 3,3 6 3 13 7 SSW 1018,0 60 0,0
12.12.2018 02:00:00 5,9 3,1 3,5 8 4 14 8 S 1017,9 60 0,0
12.12.2018 01:00:00 5,3 2,8 3,4 8 4 14 7 SSW 1018,2 57 0,0
12.12.2018 00:00:00 4,9 2,1 3,5 6 3 15 8 SSW 1018,3 58 0,0
11.12.2018 23:00:00 6,2 3,7 3,8 11 6 15 8 SSW 1018,4 49 0,0
11.12.2018 22:00:00 5,7 3,2 4,2 6 3 14 7 S 1018,3 58 0,0
11.12.2018 21:00:00 6,3 3,8 4,4 4 2 14 8 SW 1018,0 59 0,0
11.12.2018 20:00:00 6,6 4,4 4,3 10 5 13 7 SSW 1017,8 49 0,0
11.12.2018 19:00:00 7,0 4,3 5,2 0 0 16 8 N 1017,5 47 0,0
11.12.2018 18:00:00 8,0 5,1 7,1 10 6 14 8 SSW 1017,2 46 0,0
11.12.2018 17:00:00 9,5 6,4 8,6 11 6 14 8 SSW 1017,1 38 0,0
11.12.2018 16:00:00 10,9 6,6 10,4 5 3 12 7 SSW 1017,0 44 0,0
11.12.2018 15:00:00 14,4 8,1 16,6 5 3 15 8 WNW 1016,9 56 0,0
11.12.2018 14:00:00 14,6 7,4 16,4 9 5 15 8 NNW 1017,0 50 0,0
11.12.2018 13:00:00 14,6 7,2 16,3 8 4 13 7 NNW 1017,4 24 0,0
11.12.2018 12:00:00 15,2 5,9 21,4 0 0 8 4 N 1017,7 19 0,0
11.12.2018 11:00:00 14,6 6,2 15,0 4 2 11 6 SSW 1018,3 19 0,0
11.12.2018 10:00:00 12,4 4,6 10,6 8 4 15 8 S 1018,3 18 0,0
11.12.2018 09:00:00 7,8 4,4 4,2 9 5 16 8 SSW 1018,2 59 0,0
11.12.2018 08:00:00 6,6 2,5 3,3 9 5 16 9 S 1018,3 60 0,0
11.12.2018 07:00:00 4,7 1,0 2,8 9 5 16 9 SSW 1017,7 60 0,0
11.12.2018 06:00:00 5,8 2,1 2,7 10 5 15 8 S 1017,4 60 0,0
11.12.2018 05:00:00 4,6 0,9 2,4 6 3 11 6 S 1017,6 60 0,0
11.12.2018 04:00:00 5,8 1,9 3,6 6 4 14 8 SSW 1017,7 60 0,0
11.12.2018 03:00:00 6,4 2,3 4,0 10 5 18 10 SSW 1017,6 60 0,0
11.12.2018 02:00:00 7,7 2,6 4,4 13 7 16 9 SSW 1018,1 60 0,0
11.12.2018 01:00:00 6,4 1,9 5,1 9 5 16 9 S 1018,6 60 0,0
11.12.2018 00:00:00 6,6 3,0 5,0 10 5 16 9 SSW 1018,7 60 0,0
10.12.2018 23:00:00 7,7 4,1 4,7 11 6 16 9 SSW 1019,1 60 0,0
10.12.2018 22:00:00 7,4 4,2 5,6 6 3 13 7 S 1019,4 59 0,0
10.12.2018 21:00:00 7,5 4,1 5,5 4 2 11 6 S 1019,5 60 0,0
10.12.2018 20:00:00 8,2 4,6 5,9 7 4 9 5 SSW 1019,3 47 0,0
10.12.2018 19:00:00 8,4 5,0 6,4 4 2 17 9 SW 1019,1 49 0,0
10.12.2018 18:00:00 8,7 4,9 7,0 4 2 18 10 S 1018,9 51 0,0
10.12.2018 17:00:00 9,7 4,9 8,6 10 6 15 8 S 1018,7 46 0,0
10.12.2018 16:00:00 14,2 6,5 12,6 2 1 9 5 SW 1018,4 37 0,0
10.12.2018 15:00:00 16,8 6,3 19,3 4 2 11 6 NNW 1018,1 50 0,0
10.12.2018 14:00:00 17,3 5,6 18,9 4 2 21 11 N 1018,3 42 0,0
10.12.2018 13:00:00 17,7 5,6 19,5 7 4 14 7 N 1018,3 35 0,0
10.12.2018 12:00:00 17,3 5,6 19,6 9 5 24 13 SSE 1018,3 20 0,0
10.12.2018 11:00:00 16,0 7,0 15,9 13 7 24 13 S 1018,7 12 0,0
10.12.2018 10:00:00 14,7 7,0 15,0 16 8 27 15 S 1018,9 36 0,0
10.12.2018 09:00:00 13,8 7,1 11,8 14 8 28 15 SSW 1018,1 20 0,0
10.12.2018 08:00:00 12,4 6,4 11,4 15 8 29 16 SSW 1017,4 36 0,0
10.12.2018 07:00:00 12,5 6,3 11,7 14 8 28 15 SSW 1017,1 20 0,0
10.12.2018 06:00:00 13,2 6,8 12,5 18 10 34 19 SSW 1016,4 20 0,0
10.12.2018 05:00:00 13,1 6,4 11,8 14 8 31 17 S 1017,0 33 0,0
10.12.2018 04:00:00 13,6 6,9 12,1 20 11 38 20 SSW 1017,2 19 0,0
10.12.2018 03:00:00 13,0 5,6 12,2 21 11 34 18 S 1017,5 39 0,0
10.12.2018 02:00:00 13,5 5,6 12,2 22 12 37 20 S 1017,5 38 0,0
10.12.2018 01:00:00 12,9 5,8 12,0 14 7 39 21 SSW 1017,7 20 0,0
10.12.2018 00:00:00 14,0 5,4 12,3 13 7 40 22 SSW 1017,9 20 0,0
09.12.2018 23:00:00 14,3 5,1 13,4 17 9 41 22 SW 1017,3 19 0,0
09.12.2018 22:00:00 14,3 5,4 13,8 19 10 50 27 SSW 1017,0 19 0,0
09.12.2018 21:00:00 14,4 5,5 13,7 20 11 72 39 SW 1016,3 37 0,0
09.12.2018 20:00:00 14,7 6,8 14,0 22 12 66 36 SSW 1015,9 20 0,0
09.12.2018 19:00:00 14,7 6,5 14,1 24 13 58 31 SW 1015,9 45 0,0
09.12.2018 18:00:00 15,5 6,2 14,6 30 16 78 42 WSW 1015,2 55 0,0
09.12.2018 17:00:00 15,6 9,0 15,1 34 19 101 55 SW 1015,0 18 0,0
09.12.2018 16:00:00 16,0 8,5 15,5 34 18 93 50 SSW 1014,8 17 0,0
09.12.2018 15:00:00 16,1 8,6 15,6 45 24 82 44 SSW 1014,2 16 0,0
09.12.2018 14:00:00 16,1 8,6 15,8 40 21 76 41 SW 1015,3 19 0,0
09.12.2018 13:00:00 16,3 9,0 16,1 31 17 92 50 SW 1015,3 20 0,0
09.12.2018 12:00:00 17,0 9,4 16,8 41 22 73 40 SSW 1015,4 47 0,0
09.12.2018 11:00:00 16,8 8,5 16,1 44 24 72 39 SSW 1016,0 55 0,0
09.12.2018 10:00:00 15,8 9,2 15,6 39 21 65 35 SSW 1017,0 54 0,0
09.12.2018 09:00:00 15,6 9,3 14,7 34 18 67 36 SSW 1017,5 46 0,0
09.12.2018 08:00:00 15,2 9,8 14,2 37 20 65 35 SSW 1017,0 42 0,0
09.12.2018 07:00:00 14,9 9,7 14,3 41 22 74 40 SSW 1016,9 20 0,0

tt = temperature
td = dewpoint
tt 5cm = temperature 5cm
ff = wind speed
fx = gusts
dd = wind direction
ppp = reduced air pressure
vv = visibility
rr = precipitation

Next stations